| time (UTC) | temp F | wind direction | speed knots | gust knots | rain 1hr in | rain 24hr in | rain mn in | humidity % | barometer mb |
| 20260508153510 | 65 | 72 | 0.0 | 2.6 | 0.00 | 0.00 | 0.00 | 81 | 1014.1 |
| 20260508153020 | 65 | 72 | 0.9 | 2.6 | 0.00 | 0.00 | 0.00 | 81 | 1014.0 |
| 20260508152510 | 65 | 72 | 0.0 | 2.6 | 0.00 | 0.00 | 0.00 | 81 | 1013.9 |
| 20260508152006 | 65 | 72 | 0.0 | 2.6 | 0.00 | 0.00 | 0.00 | 81 | 1014.0 |
| 20260508151527 | 65 | 72 | 0.0 | 2.6 | 0.00 | 0.00 | 0.00 | 81 | 1014.0 |
| 20260508151013 | 65 | 72 | 0.0 | 2.6 | 0.00 | 0.00 | 0.00 | 80 | 1013.9 |
| 20260508150506 | 65 | 72 | 0.0 | 3.5 | 0.00 | 0.00 | 0.00 | 80 | 1013.9 |
| 20260508150029 | 65 | 72 | 0.0 | 3.5 | 0.00 | 0.00 | 0.00 | 80 | 1013.9 |
| 20260508145511 | 65 | 67 | 0.0 | 2.6 | 0.00 | 0.00 | 0.00 | 81 | 1013.8 |
| 20260508145004 | 65 | 68 | 0.0 | 1.7 | 0.00 | 0.00 | 0.00 | 81 | 1013.9 |
| 20260508144512 | 65 | 68 | 0.0 | 1.7 | 0.00 | 0.00 | 0.00 | 81 | 1013.9 |
| 20260508144005 | 64 | 68 | 0.0 | 2.6 | 0.00 | 0.00 | 0.00 | 81 | 1013.8 |
| 20260508143505 | 64 | 68 | 0.0 | 2.6 | 0.00 | 0.00 | 0.00 | 81 | 1013.7 |
| 20260508143016 | 64 | 68 | 0.9 | 2.6 | 0.00 | 0.00 | 0.00 | 80 | 1013.8 |
| 20260508142507 | 64 | 68 | 0.9 | 1.7 | 0.00 | 0.00 | 0.00 | 81 | 1013.9 |
| 20260508142010 | 64 | 68 | 0.0 | 2.6 | 0.00 | 0.00 | 0.00 | 82 | 1013.9 |
| 20260508141531 | 64 | 68 | 0.0 | 2.6 | 0.00 | 0.00 | 0.00 | 81 | 1013.9 |
| 20260508141009 | 64 | 68 | 0.0 | 2.6 | 0.00 | 0.00 | 0.00 | 81 | 1013.9 |
| 20260508140507 | 64 | 68 | 0.9 | 2.6 | 0.00 | 0.00 | 0.00 | 80 | 1013.8 |
| 20260508140021 | 64 | 90 | 0.0 | 3.5 | 0.00 | 0.00 | 0.00 | 80 | 1013.9 |
| 20260508135510 | 64 | 18 | 0.0 | 6.1 | 0.00 | 0.00 | 0.00 | 82 | 1013.8 |
| 20260508135007 | 63 | 18 | 3.5 | 6.1 | 0.00 | 0.00 | 0.00 | 82 | 1013.6 |
| 20260508134528 | 62 | 1 | 0.9 | 2.6 | 0.00 | 0.00 | 0.00 | 82 | 1013.7 |
| 20260508134008 | 62 | 1 | 0.0 | 1.7 | 0.00 | 0.00 | 0.00 | 82 | 1013.8 |
| 20260508133512 | 62 | 1 | 0.0 | 1.7 | 0.00 | 0.00 | 0.00 | 84 | 1014.2 |
| 20260508133015 | 62 | 1 | 0.0 | 3.5 | 0.00 | 0.00 | 0.00 | 83 | 1014.2 |
| 20260508132508 | 62 | 1 | 0.0 | 3.5 | 0.00 | 0.00 | 0.00 | 84 | 1014.3 |
| 20260508132008 | 61 | 1 | 1.7 | 2.6 | 0.00 | 0.00 | 0.00 | 85 | 1014.0 |
| 20260508131518 | 61 | 1 | 0.0 | 1.7 | 0.00 | 0.00 | 0.00 | 85 | 1014.3 |
| 20260508131007 | 61 | 1 | 0.0 | 0.0 | 0.00 | 0.00 | 0.00 | 85 | 1014.3 |
| 20260508130508 | 60 | 1 | 0.0 | 0.0 | 0.00 | 0.00 | 0.00 | 85 | 1014.3 |
| 20260508130022 | 60 | 1 | 0.0 | 0.0 | 0.00 | 0.00 | 0.00 | 86 | 1014.1 |
| 20260508125509 | 60 | 1 | 0.0 | 0.9 | 0.00 | 0.00 | 0.00 | 86 | 1014.2 |
| 20260508125014 | 60 | 1 | 0.0 | 0.9 | 0.00 | 0.00 | 0.00 | 87 | 1014.2 |
| 20260508124527 | 60 | 1 | 0.0 | 0.9 | 0.00 | 0.00 | 0.00 | 87 | 1014.1 |
| 20260508124010 | 60 | 1 | 0.0 | 0.9 | 0.00 | 0.00 | 0.00 | 87 | 1014.2 |
| 20260508123507 | 60 | 1 | 0.0 | 1.7 | 0.00 | 0.00 | 0.00 | 87 | 1014.4 |
| 20260508123042 | 60 | 1 | 0.0 | 1.7 | 0.00 | 0.00 | 0.00 | 87 | 1014.4 |
| 20260508122508 | 59 | 1 | 0.0 | 1.7 | 0.00 | 0.00 | 0.00 | 87 | 1014.3 |
| 20260508122008 | 59 | 1 | 0.0 | 0.0 | 0.00 | 0.00 | 0.00 | 87 | 1014.3 |
| 20260508121517 | 59 | 1 | 0.0 | 0.0 | 0.00 | 0.00 | 0.00 | 87 | 1014.3 |
| 20260508121007 | 59 | 1 | 0.0 | 0.0 | 0.00 | 0.00 | 0.00 | 87 | 1014.4 |
| 20260508120507 | 59 | 1 | 0.0 | 2.6 | 0.00 | 0.00 | 0.00 | 87 | 1014.6 |
| 20260508120005 | 59 | 1 | 0.0 | 4.3 | 0.00 | 0.00 | 0.00 | 87 | 1014.6 |
| 20260508115504 | 59 | 1 | 1.7 | 4.3 | 0.00 | 0.00 | 0.00 | 87 | 1014.5 |
| 20260508115003 | 59 | 358 | 1.7 | 3.5 | 0.00 | 0.00 | 0.00 | 87 | 1014.6 |
| 20260508114506 | 59 | 359 | 0.0 | 1.7 | 0.00 | 0.00 | 0.00 | 86 | 1014.8 |
| 20260508114006 | 59 | 359 | 0.0 | 2.6 | 0.00 | 0.00 | 0.00 | 86 | 1015.0 |
| 20260508113503 | 59 | 359 | 0.0 | 3.5 | 0.00 | 0.00 | 0.00 | 86 | 1015.1 |
| 20260508113010 | 59 | 360 | 1.7 | 4.3 | 0.00 | 0.00 | 0.00 | 86 | 1015.0 |
| 20260508112507 | 59 | 359 | 1.7 | 4.3 | 0.00 | 0.00 | 0.00 | 87 | 1014.8 |
| 20260508112003 | 59 | 360 | 1.7 | 5.2 | 0.00 | 0.00 | 0.00 | 87 | 1014.7 |
| 20260508111514 | 59 | 13 | 1.7 | 5.2 | 0.00 | 0.00 | 0.00 | 87 | 1014.7 |
| 20260508111011 | 59 | 3 | 2.6 | 7.0 | 0.00 | 0.00 | 0.00 | 87 | 1014.6 |
| 20260508110503 | 59 | 360 | 2.6 | 7.0 | 0.00 | 0.00 | 0.00 | 87 | 1014.6 |
| 20260508110013 | 59 | 2 | 2.6 | 7.0 | 0.00 | 0.00 | 0.00 | 87 | 1014.4 |
| 20260508105510 | 59 | 1 | 2.6 | 5.2 | 0.00 | 0.00 | 0.00 | 87 | 1014.5 |
| 20260508105008 | 59 | 360 | 3.5 | 5.2 | 0.00 | 0.00 | 0.00 | 87 | 1014.4 |
| 20260508104508 | 59 | 1 | 1.7 | 4.3 | 0.00 | 0.00 | 0.00 | 87 | 1014.2 |
| 20260508104003 | 59 | 2 | 0.9 | 4.3 | 0.00 | 0.00 | 0.00 | 87 | 1014.5 |
| 20260508103503 | 59 | 360 | 1.7 | 4.3 | 0.00 | 0.00 | 0.00 | 87 | 1014.6 |
| 20260508103007 | 59 | 352 | 1.7 | 3.5 | 0.00 | 0.00 | 0.00 | 87 | 1014.7 |
| 20260508102504 | 59 | 350 | 1.7 | 4.3 | 0.00 | 0.00 | 0.00 | 86 | 1014.7 |
| 20260508102007 | 59 | 350 | 0.9 | 4.3 | 0.00 | 0.00 | 0.00 | 86 | 1014.9 |
| 20260508101513 | 59 | 348 | 1.7 | 3.5 | 0.00 | 0.00 | 0.00 | 86 | 1014.8 |
| 20260508101006 | 59 | 353 | 1.7 | 5.2 | 0.00 | 0.00 | 0.00 | 86 | 1015.0 |
| 20260508100511 | 59 | 355 | 0.9 | 5.2 | 0.00 | 0.00 | 0.00 | 86 | 1015.1 |
| 20260508100016 | 59 | 7 | 1.7 | 4.3 | 0.00 | 0.00 | 0.00 | 86 | 1015.1 |
| 20260508095505 | 59 | 347 | 0.0 | 4.3 | 0.00 | 0.00 | 0.00 | 85 | 1015.1 |
| 20260508095005 | 59 | 315 | 1.7 | 4.3 | 0.00 | 0.00 | 0.00 | 85 | 1015.0 |
| 20260508094518 | 60 | 1 | 1.7 | 4.3 | 0.00 | 0.00 | 0.00 | 84 | 1015.2 |
| 20260508094004 | 60 | 1 | 1.7 | 4.3 | 0.00 | 0.00 | 0.00 | 84 | 1015.2 |
| 20260508093509 | 60 | 1 | 0.9 | 2.6 | 0.00 | 0.00 | 0.00 | 84 | 1015.2 |
| 20260508093012 | 60 | 1 | 0.0 | 1.7 | 0.00 | 0.00 | 0.00 | 83 | 1015.3 |
| 20260508092504 | 60 | 1 | 0.0 | 1.7 | 0.00 | 0.00 | 0.00 | 83 | 1015.2 |
| 20260508092004 | 60 | 1 | 0.0 | 2.6 | 0.00 | 0.00 | 0.00 | 83 | 1015.0 |
| 20260508091509 | 60 | 1 | 0.0 | 2.6 | 0.00 | 0.00 | 0.00 | 83 | 1014.9 |
| 20260508091005 | 60 | 1 | 0.9 | 1.7 | 0.00 | 0.00 | 0.00 | 83 | 1014.8 |
| 20260508090507 | 60 | 1 | 0.0 | 1.7 | 0.00 | 0.00 | 0.00 | 83 | 1014.8 |
| 20260508090021 | 60 | 1 | 0.9 | 1.7 | 0.00 | 0.00 | 0.00 | 83 | 1014.7 |
| 20260508085502 | 60 | 1 | 0.0 | 2.6 | 0.00 | 0.00 | 0.00 | 82 | 1014.6 |
| 20260508085007 | 60 | 1 | 0.0 | 2.6 | 0.00 | 0.00 | 0.00 | 83 | 1014.6 |
| 20260508084515 | 60 | 1 | 0.0 | 2.6 | 0.00 | 0.00 | 0.00 | 83 | 1014.5 |
| 20260508084004 | 60 | 1 | 0.9 | 2.6 | 0.00 | 0.00 | 0.00 | 83 | 1014.3 |
| 20260508083507 | 60 | 1 | 0.0 | 0.0 | 0.00 | 0.00 | 0.00 | 83 | 1014.6 |
| 20260508083024 | 60 | 1 | 0.0 | 0.0 | 0.00 | 0.00 | 0.00 | 83 | 1014.7 |
| 20260508082503 | 59 | 1 | 0.0 | 0.0 | 0.00 | 0.00 | 0.00 | 83 | 1014.7 |
| 20260508082009 | 59 | 1 | 0.0 | 0.0 | 0.00 | 0.00 | 0.00 | 84 | 1014.6 |
| 20260508081528 | 59 | 1 | 0.0 | 2.6 | 0.00 | 0.00 | 0.00 | 84 | 1014.4 |
| 20260508081005 | 59 | 1 | 0.0 | 2.6 | 0.00 | 0.00 | 0.00 | 84 | 1014.5 |
| 20260508080505 | 59 | 1 | 0.9 | 2.6 | 0.00 | 0.00 | 0.00 | 85 | 1014.3 |
| 20260508080010 | 59 | 1 | 0.9 | 3.5 | 0.00 | 0.00 | 0.00 | 85 | 1014.3 |
| 20260508075506 | 59 | 1 | 0.9 | 3.5 | 0.00 | 0.00 | 0.00 | 85 | 1014.3 |
| 20260508075005 | 59 | 1 | 0.9 | 3.5 | 0.00 | 0.00 | 0.00 | 85 | 1014.3 |
| 20260508074526 | 59 | 1 | 1.7 | 3.5 | 0.00 | 0.00 | 0.00 | 85 | 1014.2 |
| 20260508074008 | 59 | 1 | 1.7 | 3.5 | 0.00 | 0.00 | 0.00 | 85 | 1014.3 |
| 20260508073508 | 59 | 1 | 2.6 | 3.5 | 0.00 | 0.00 | 0.00 | 85 | 1014.3 |
| 20260508073018 | 58 | 1 | 1.7 | 3.5 | 0.00 | 0.00 | 0.00 | 86 | 1014.4 |
| 20260508072507 | 58 | 1 | 1.7 | 3.5 | 0.00 | 0.00 | 0.00 | 86 | 1014.4 |
| 20260508072010 | 58 | 1 | 0.9 | 2.6 | 0.00 | 0.00 | 0.00 | 86 | 1014.4 |
| 20260508071529 | 58 | 1 | 0.0 | 4.3 | 0.00 | 0.00 | 0.00 | 86 | 1014.6 |
| 20260508071008 | 58 | 1 | 0.9 | 4.3 | 0.00 | 0.00 | 0.00 | 86 | 1014.4 |
| 20260508070512 | 58 | 1 | 1.7 | 4.3 | 0.00 | 0.00 | 0.00 | 87 | 1014.5 |
| 20260508070027 | 58 | 11 | 0.9 | 2.6 | 0.00 | 0.00 | 0.00 | 87 | 1014.9 |
| 20260508065503 | 58 | 11 | 0.0 | 2.6 | 0.00 | 0.00 | 0.00 | 87 | 1015.0 |
| 20260508065003 | 57 | 11 | 0.0 | 2.6 | 0.00 | 0.00 | 0.00 | 87 | 1015.2 |
| 20260508064508 | 57 | 11 | 0.0 | 1.7 | 0.00 | 0.00 | 0.00 | 87 | 1015.4 |
| 20260508064004 | 57 | 11 | 0.0 | 0.0 | 0.00 | 0.00 | 0.00 | 87 | 1015.4 |
| 20260508063504 | 57 | 11 | 0.0 | 0.0 | 0.00 | 0.00 | 0.00 | 87 | 1015.5 |
| 20260508063008 | 57 | 11 | 0.0 | 1.7 | 0.00 | 0.00 | 0.00 | 87 | 1015.8 |
| 20260508062510 | 57 | 11 | 0.0 | 1.7 | 0.00 | 0.00 | 0.00 | 87 | 1015.5 |
| 20260508062007 | 57 | 11 | 0.9 | 1.7 | 0.00 | 0.00 | 0.00 | 87 | 1015.4 |
| 20260508061510 | 57 | 11 | 0.0 | 0.9 | 0.00 | 0.00 | 0.00 | 87 | 1015.6 |
| 20260508061008 | 57 | 11 | 0.0 | 2.6 | 0.00 | 0.00 | 0.00 | 87 | 1015.6 |
| 20260508060508 | 57 | 11 | 0.0 | 2.6 | 0.00 | 0.00 | 0.00 | 86 | 1015.7 |
| 20260508060011 | 57 | 11 | 0.0 | 0.9 | 0.00 | 0.00 | 0.00 | 86 | 1015.6 |
| 20260508055507 | 58 | 11 | 0.0 | 0.0 | 0.00 | 0.00 | 0.00 | 86 | 1015.6 |
| 20260508055009 | 58 | 11 | 0.0 | 1.7 | 0.00 | 0.00 | 0.00 | 86 | 1015.5 |
| 20260508054511 | 58 | 11 | 0.0 | 1.7 | 0.00 | 0.00 | 0.00 | 86 | 1015.3 |
| 20260508054007 | 58 | 11 | 0.0 | 1.7 | 0.00 | 0.00 | 0.00 | 86 | 1015.3 |
| 20260508053504 | 58 | 11 | 0.0 | 1.7 | 0.00 | 0.00 | 0.00 | 86 | 1015.4 |
| 20260508053009 | 58 | 11 | 0.0 | 1.7 | 0.00 | 0.00 | 0.00 | 86 | 1015.3 |
| 20260508052505 | 58 | 11 | 0.0 | 1.7 | 0.00 | 0.00 | 0.00 | 86 | 1015.6 |
| 20260508052011 | 58 | 11 | 0.0 | 2.6 | 0.00 | 0.00 | 0.00 | 86 | 1015.5 |
| 20260508051510 | 58 | 11 | 0.9 | 2.6 | 0.00 | 0.00 | 0.00 | 86 | 1015.4 |
| 20260508051008 | 58 | 11 | 0.9 | 3.5 | 0.00 | 0.00 | 0.00 | 86 | 1015.5 |
| 20260508050507 | 58 | 11 | 0.9 | 3.5 | 0.00 | 0.00 | 0.00 | 87 | 1015.5 |
| 20260508050021 | 58 | 11 | 0.0 | 1.7 | 0.00 | 0.00 | 0.00 | 87 | 1015.6 |
| 20260508045512 | 58 | 11 | 0.0 | 0.9 | 0.00 | 0.00 | 0.00 | 87 | 1015.8 |
| 20260508045007 | 58 | 11 | 0.0 | 0.9 | 0.00 | 0.00 | 0.00 | 87 | 1015.6 |
| 20260508044514 | 58 | 11 | 0.0 | 0.0 | 0.00 | 0.00 | 0.00 | 87 | 1016.0 |
| 20260508044009 | 58 | 11 | 0.0 | 0.0 | 0.00 | 0.00 | 0.00 | 87 | 1016.1 |
| 20260508043509 | 58 | 11 | 0.0 | 0.0 | 0.00 | 0.00 | 0.00 | 87 | 1016.2 |
| 20260508043015 | 58 | 11 | 0.0 | 0.0 | 0.00 | 0.00 | 0.00 | 87 | 1015.8 |
| 20260508042511 | 58 | 11 | 0.0 | 0.0 | 0.00 | 0.00 | 0.00 | 87 | 1015.7 |
| 20260508042010 | 57 | 11 | 0.0 | 0.0 | 0.00 | 0.00 | 0.00 | 87 | 1015.6 |
| 20260508041515 | 57 | 11 | 0.0 | 0.0 | 0.00 | 0.00 | 0.00 | 86 | 1015.6 |
| 20260508041006 | 58 | 11 | 0.0 | 0.0 | 0.00 | 0.00 | 0.00 | 86 | 1015.9 |
| 20260508040509 | 58 | 11 | 0.0 | 0.0 | 0.00 | 0.00 | 0.00 | 86 | 1016.0 |
| 20260508040018 | 58 | 11 | 0.0 | 0.0 | 0.00 | 0.00 | 0.00 | 85 | 1016.1 |
| 20260508035508 | 58 | 11 | 0.0 | 0.0 | 0.00 | 0.00 | 0.00 | 85 | 1016.1 |
| 20260508035012 | 58 | 11 | 0.0 | 0.0 | 0.00 | 0.00 | 0.00 | 84 | 1016.1 |
| 20260508034521 | 58 | 11 | 0.0 | 0.0 | 0.00 | 0.00 | 0.00 | 84 | 1016.4 |
| 20260508034008 | 59 | 11 | 0.0 | 0.0 | 0.00 | 0.00 | 0.00 | 84 | 1016.4 |
| 20260508033514 | 59 | 11 | 0.0 | 0.0 | 0.00 | 0.00 | 0.00 | 83 | 1016.4 |
| 20260508033018 | 59 | 11 | 0.0 | 0.0 | 0.00 | 0.00 | 0.00 | 83 | 1016.3 |
| 20260508032509 | 59 | 11 | 0.0 | 1.7 | 0.00 | 0.00 | 0.00 | 83 | 1016.1 |
| 20260508032013 | 59 | 11 | 0.0 | 1.7 | 0.00 | 0.00 | 0.00 | 83 | 1016.0 |
| 20260508031521 | 59 | 11 | 0.0 | 1.7 | 0.00 | 0.00 | 0.00 | 82 | 1016.3 |
| 20260508031011 | 60 | 11 | 0.0 | 0.9 | 0.00 | 0.00 | 0.00 | 82 | 1016.3 |
| 20260508030505 | 60 | 11 | 0.0 | 1.7 | 0.00 | 0.00 | 0.00 | 82 | 1016.1 |
| 20260508030017 | 60 | 11 | 0.0 | 1.7 | 0.00 | 0.00 | 0.00 | 81 | 1015.5 |
| 20260508025508 | 60 | 11 | 0.9 | 1.7 | 0.00 | 0.00 | 0.00 | 81 | 1015.0 |
| 20260508025013 | 60 | 11 | 0.0 | 2.6 | 0.00 | 0.00 | 0.00 | 81 | 1015.0 |
| 20260508024522 | 60 | 11 | 0.9 | 2.6 | 0.00 | 0.00 | 0.00 | 81 | 1015.1 |
| 20260508024008 | 60 | 11 | 0.0 | 2.6 | 0.00 | 0.00 | 0.00 | 80 | 1015.2 |
| 20260508023509 | 60 | 11 | 0.9 | 4.3 | 0.00 | 0.00 | 0.00 | 80 | 1015.0 |
| 20260508023027 | 60 | 11 | 1.7 | 5.2 | 0.00 | 0.00 | 0.00 | 80 | 1014.7 |
| 20260508022509 | 60 | 11 | 2.6 | 5.2 | 0.00 | 0.00 | 0.00 | 80 | 1014.4 |
| 20260508022007 | 60 | 8 | 1.7 | 5.2 | 0.00 | 0.00 | 0.00 | 79 | 1014.5 |
| 20260508021532 | 60 | 19 | 1.7 | 5.2 | 0.00 | 0.00 | 0.00 | 79 | 1014.5 |
| 20260508021012 | 61 | 15 | 1.7 | 5.2 | 0.00 | 0.00 | 0.00 | 79 | 1014.4 |
| 20260508020510 | 61 | 17 | 1.7 | 5.2 | 0.00 | 0.00 | 0.00 | 79 | 1014.4 |
| 20260508020025 | 61 | 16 | 1.7 | 4.3 | 0.00 | 0.00 | 0.00 | 78 | 1014.4 |
| 20260508015510 | 61 | 15 | 1.7 | 3.5 | 0.00 | 0.00 | 0.00 | 78 | 1014.5 |
| 20260508015007 | 61 | 12 | 0.0 | 5.2 | 0.00 | 0.00 | 0.00 | 78 | 1014.4 |
| 20260508014520 | 61 | 12 | 0.0 | 5.2 | 0.00 | 0.00 | 0.00 | 78 | 1014.3 |
| 20260508014008 | 61 | 12 | 0.9 | 5.2 | 0.00 | 0.00 | 0.00 | 78 | 1014.5 |
| 20260508013517 | 61 | 12 | 1.7 | 5.2 | 0.00 | 0.00 | 0.00 | 78 | 1014.6 |
| 20260508013034 | 61 | 11 | 2.6 | 5.2 | 0.00 | 0.00 | 0.00 | 77 | 1014.7 |
| 20260508012511 | 61 | 11 | 1.7 | 5.2 | 0.00 | 0.00 | 0.00 | 77 | 1014.6 |
| 20260508012011 | 61 | 13 | 2.6 | 5.2 | 0.00 | 0.00 | 0.00 | 76 | 1014.4 |
| 20260508011525 | 62 | 1 | 1.7 | 4.3 | 0.00 | 0.00 | 0.00 | 76 | 1014.4 |
| 20260508011008 | 62 | 5 | 0.9 | 3.5 | 0.00 | 0.00 | 0.00 | 76 | 1014.3 |
| 20260508010511 | 62 | 5 | 0.9 | 3.5 | 0.00 | 0.00 | 0.00 | 75 | 1014.5 |
| 20260508010027 | 62 | 5 | 0.9 | 2.6 | 0.00 | 0.00 | 0.00 | 74 | 1014.6 |
| 20260508005510 | 62 | 5 | 0.9 | 2.6 | 0.00 | 0.00 | 0.00 | 74 | 1014.9 |
| 20260508005012 | 62 | 5 | 0.9 | 3.5 | 0.00 | 0.00 | 0.00 | 74 | 1014.9 |
| 20260508004535 | 63 | 5 | 0.9 | 4.3 | 0.00 | 0.00 | 0.00 | 73 | 1015.3 |
| 20260508004013 | 63 | 5 | 1.7 | 5.2 | 0.00 | 0.00 | 0.00 | 73 | 1015.0 |
| 20260508003512 | 63 | 15 | 2.6 | 5.2 | 0.00 | 0.00 | 0.00 | 73 | 1015.1 |
| 20260508003024 | 63 | 1 | 1.7 | 4.3 | 0.00 | 0.00 | 0.00 | 72 | 1015.1 |
| 20260508002507 | 64 | 10 | 1.7 | 3.5 | 0.00 | 0.00 | 0.00 | 73 | 1015.0 |
| 20260508002011 | 64 | 10 | 0.0 | 2.6 | 0.00 | 0.00 | 0.00 | 73 | 1015.2 |
| 20260508001522 | 64 | 10 | 0.9 | 2.6 | 0.00 | 0.00 | 0.00 | 73 | 1015.4 |
| 20260508001009 | 64 | 10 | 0.0 | 4.3 | 0.00 | 0.00 | 0.00 | 71 | 1015.5 |
| 20260508000511 | 64 | 10 | 1.7 | 4.3 | 0.00 | 0.00 | 0.00 | 71 | 1015.6 |
| 20260508000025 | 64 | 10 | 0.9 | 3.5 | 0.00 | 0.00 | 0.00 | 71 | 1015.7 |
| 20260507235510 | 64 | 10 | 1.7 | 3.5 | 0.00 | 0.00 | 0.00 | 70 | 1015.7 |
| 20260507235008 | 64 | 10 | 0.9 | 2.6 | 0.00 | 0.00 | 0.00 | 69 | 1016.1 |
| 20260507234529 | 64 | 10 | 0.9 | 2.6 | 0.00 | 0.00 | 0.00 | 71 | 1016.3 |
| 20260507234006 | 64 | 10 | 0.9 | 2.6 | 0.00 | 0.00 | 0.00 | 70 | 1016.4 |
| 20260507233508 | 64 | 10 | 0.9 | 2.6 | 0.00 | 0.00 | 0.00 | 69 | 1016.3 |
| 20260507233036 | 64 | 10 | 0.0 | 3.5 | 0.00 | 0.00 | 0.00 | 68 | 1016.2 |
| 20260507232510 | 64 | 10 | 0.9 | 4.3 | 0.00 | 0.00 | 0.00 | 70 | 1015.9 |
| 20260507232012 | 64 | 10 | 0.0 | 5.2 | 0.00 | 0.00 | 0.00 | 69 | 1015.5 |
| 20260507231526 | 64 | 8 | 2.6 | 5.2 | 0.00 | 0.00 | 0.00 | 68 | 1015.1 |
| 20260507231012 | 64 | 7 | 0.9 | 4.3 | 0.00 | 0.00 | 0.00 | 69 | 1015.5 |
| 20260507230510 | 64 | 8 | 0.9 | 5.2 | 0.00 | 0.00 | 0.00 | 68 | 1015.8 |
| 20260507230026 | 64 | 13 | 2.6 | 5.2 | 0.00 | 0.00 | 0.00 | 68 | 1015.8 |
| 20260507225510 | 65 | 8 | 2.6 | 6.1 | 0.00 | 0.00 | 0.00 | 69 | 1015.7 |
| 20260507225009 | 65 | 1 | 2.6 | 6.1 | 0.00 | 0.00 | 0.00 | 68 | 1015.8 |
| 20260507224518 | 65 | 6 | 1.7 | 6.1 | 0.00 | 0.00 | 0.00 | 68 | 1016.1 |
| 20260507224013 | 64 | 359 | 3.5 | 6.1 | 0.00 | 0.00 | 0.00 | 67 | 1016.2 |
| 20260507223510 | 64 | 1 | 0.9 | 4.3 | 0.00 | 0.00 | 0.00 | 69 | 1016.4 |
| 20260507223016 | 64 | 1 | 1.7 | 4.3 | 0.00 | 0.00 | 0.00 | 68 | 1016.4 |
| 20260507222509 | 64 | 1 | 2.6 | 5.2 | 0.00 | 0.00 | 0.00 | 67 | 1016.2 |
| 20260507222008 | 64 | 6 | 1.7 | 5.2 | 0.00 | 0.00 | 0.00 | 68 | 1016.3 |
| 20260507221518 | 64 | 1 | 0.0 | 5.2 | 0.00 | 0.00 | 0.00 | 68 | 1016.4 |
| 20260507221015 | 64 | 1 | 0.0 | 6.1 | 0.00 | 0.00 | 0.00 | 69 | 1016.4 |
| 20260507220508 | 64 | 15 | 2.6 | 6.1 | 0.00 | 0.00 | 0.00 | 68 | 1016.3 |
| 20260507220021 | 64 | 15 | 2.6 | 6.1 | 0.00 | 0.00 | 0.00 | 69 | 1016.4 |
| 20260507215509 | 64 | 11 | 1.7 | 6.1 | 0.00 | 0.00 | 0.00 | 70 | 1016.8 |
| 20260507215007 | 64 | 299 | 0.9 | 7.0 | 0.00 | 0.00 | 0.00 | 70 | 1017.1 |
| 20260507214521 | 64 | 25 | 3.5 | 7.0 | 0.00 | 0.00 | 0.00 | 69 | 1016.8 |
| 20260507214013 | 65 | 20 | 2.6 | 6.1 | 0.00 | 0.00 | 0.00 | 69 | 1017.0 |
| 20260507213513 | 65 | 359 | 1.7 | 4.3 | 0.00 | 0.00 | 0.00 | 69 | 1017.2 |
| 20260507213020 | 65 | 349 | 0.0 | 6.1 | 0.00 | 0.00 | 0.00 | 70 | 1017.0 |
| 20260507212509 | 64 | 349 | 2.6 | 7.0 | 0.00 | 0.00 | 0.00 | 69 | 1016.8 |
| 20260507212010 | 64 | 359 | 1.7 | 7.8 | 0.00 | 0.00 | 0.00 | 68 | 1016.8 |
| 20260507211517 | 64 | 6 | 3.5 | 7.8 | 0.00 | 0.00 | 0.00 | 69 | 1017.0 |
| 20260507211007 | 64 | 23 | 2.6 | 7.0 | 0.00 | 0.00 | 0.00 | 69 | 1016.7 |
| 20260507210509 | 64 | 18 | 2.6 | 7.8 | 0.00 | 0.00 | 0.00 | 68 | 1016.8 |
| 20260507210035 | 64 | 11 | 3.5 | 7.8 | 0.00 | 0.00 | 0.00 | 69 | 1016.2 |
| 20260507205510 | 64 | 8 | 3.5 | 7.8 | 0.00 | 0.00 | 0.00 | 70 | 1016.5 |
| 20260507205006 | 64 | 25 | 3.5 | 8.7 | 0.00 | 0.00 | 0.00 | 69 | 1016.9 |
| 20260507204523 | 64 | 18 | 3.5 | 8.7 | 0.00 | 0.00 | 0.00 | 69 | 1016.8 |
| 20260507204011 | 64 | 1 | 4.3 | 8.7 | 0.00 | 0.00 | 0.00 | 68 | 1017.1 |
| 20260507203506 | 64 | 4 | 2.6 | 7.8 | 0.00 | 0.00 | 0.00 | 70 | 1017.1 |
| 20260507203024 | 64 | 359 | 3.5 | 7.0 | 0.00 | 0.00 | 0.00 | 70 | 1017.3 |
| 20260507202508 | 64 | 1 | 3.5 | 7.0 | 0.00 | 0.00 | 0.00 | 70 | 1017.2 |
| 20260507202006 | 64 | 2 | 0.9 | 2.6 | 0.00 | 0.00 | 0.00 | 70 | 1017.5 |
| 20260507201525 | 64 | 2 | 0.0 | 3.5 | 0.00 | 0.00 | 0.00 | 72 | 1017.7 |
| 20260507201007 | 63 | 2 | 0.9 | 7.0 | 0.00 | 0.00 | 0.00 | 73 | 1017.5 |
| 20260507200509 | 63 | 359 | 2.6 | 8.7 | 0.00 | 0.00 | 0.00 | 71 | 1017.2 |
| 20260507200019 | 63 | 4 | 2.6 | 8.7 | 0.00 | 0.00 | 0.00 | 72 | 1016.8 |
| 20260507195503 | 64 | 1 | 1.7 | 4.3 | 0.00 | 0.00 | 0.00 | 72 | 1017.3 |
| 20260507195003 | 63 | 316 | 1.7 | 5.2 | 0.00 | 0.00 | 0.00 | 70 | 1017.5 |
| 20260507194509 | 63 | 347 | 1.7 | 5.2 | 0.00 | 0.00 | 0.00 | 70 | 1017.7 |
| 20260507194004 | 63 | 1 | 0.9 | 7.0 | 0.00 | 0.00 | 0.00 | 71 | 1018.2 |
| 20260507193502 | 63 | 3 | 2.6 | 7.0 | 0.00 | 0.00 | 0.00 | 70 | 1018.0 |
| 20260507193006 | 63 | 359 | 2.6 | 7.0 | 0.00 | 0.00 | 0.00 | 71 | 1018.4 |
| 20260507192507 | 63 | 13 | 0.9 | 7.0 | 0.00 | 0.00 | 0.00 | 70 | 1018.5 |
| 20260507192002 | 63 | 18 | 2.6 | 7.0 | 0.00 | 0.00 | 0.00 | 71 | 1018.0 |
| 20260507191506 | 63 | 22 | 3.5 | 8.7 | 0.00 | 0.00 | 0.00 | 70 | 1017.8 |
| 20260507191008 | 63 | 7 | 1.7 | 9.6 | 0.00 | 0.00 | 0.00 | 71 | 1018.1 |
| 20260507190502 | 63 | 20 | 4.3 | 9.6 | 0.00 | 0.00 | 0.00 | 71 | 1017.9 |
| 20260507190008 | 63 | 359 | 2.6 | 8.7 | 0.00 | 0.00 | 0.00 | 73 | 1017.6 |
| 20260507185503 | 62 | 18 | 4.3 | 8.7 | 0.00 | 0.00 | 0.00 | 72 | 1017.8 |
| 20260507185005 | 62 | 27 | 3.5 | 8.7 | 0.00 | 0.00 | 0.00 | 72 | 1018.1 |
| 20260507184515 | 62 | 23 | 4.3 | 9.6 | 0.00 | 0.00 | 0.00 | 72 | 1017.9 |
| 20260507184002 | 62 | 21 | 3.5 | 9.6 | 0.00 | 0.00 | 0.00 | 73 | 1017.4 |
| 20260507183505 | 62 | 10 | 2.6 | 8.7 | 0.00 | 0.00 | 0.00 | 73 | 1017.6 |
| 20260507183004 | 62 | 345 | 4.3 | 8.7 | 0.00 | 0.00 | 0.00 | 73 | 1017.7 |
| 20260507182504 | 62 | 15 | 3.5 | 11.3 | 0.00 | 0.00 | 0.00 | 73 | 1018.1 |
| 20260507182004 | 62 | 19 | 3.5 | 11.3 | 0.00 | 0.00 | 0.00 | 73 | 1017.7 |
| 20260507181506 | 62 | 10 | 3.5 | 8.7 | 0.00 | 0.00 | 0.00 | 72 | 1017.9 |
| 20260507181006 | 62 | 11 | 2.6 | 7.8 | 0.00 | 0.00 | 0.00 | 73 | 1018.2 |
| 20260507180503 | 62 | 9 | 4.3 | 8.7 | 0.00 | 0.00 | 0.00 | 72 | 1018.1 |
| 20260507180012 | 62 | 360 | 5.2 | 8.7 | 0.00 | 0.00 | 0.00 | 72 | 1018.7 |
| 20260507175502 | 63 | 360 | 4.3 | 8.7 | 0.00 | 0.00 | 0.00 | 72 | 1018.8 |
| 20260507175002 | 62 | 8 | 2.6 | 10.4 | 0.00 | 0.00 | 0.00 | 74 | 1019.0 |
| 20260507174516 | 62 | 4 | 3.5 | 10.4 | 0.00 | 0.00 | 0.00 | 73 | 1018.4 |
| 20260507174003 | 62 | 4 | 4.3 | 12.2 | 0.00 | 0.00 | 0.00 | 74 | 1018.0 |
| 20260507173503 | 61 | 350 | 6.1 | 12.2 | 0.00 | 0.00 | 0.00 | 75 | 1017.7 |
| 20260507173003 | 61 | 23 | 4.3 | 11.3 | 0.00 | 0.00 | 0.00 | 77 | 1018.0 |
| 20260507172503 | 61 | 5 | 4.3 | 11.3 | 0.00 | 0.00 | 0.00 | 78 | 1018.2 |
| 20260507172004 | 60 | 3 | 4.3 | 11.3 | 0.00 | 0.00 | 0.00 | 79 | 1018.3 |
| 20260507171506 | 60 | 25 | 3.5 | 10.4 | 0.00 | 0.00 | 0.00 | 80 | 1018.8 |
| 20260507171003 | 59 | 338 | 3.5 | 10.4 | 0.00 | 0.00 | 0.00 | 80 | 1018.2 |
| 20260507170506 | 59 | 6 | 3.5 | 10.4 | 0.00 | 0.00 | 0.00 | 81 | 1018.0 |
| 20260507170012 | 59 | 16 | 6.1 | 10.4 | 0.00 | 0.00 | 0.00 | 82 | 1017.7 |
| 20260507165502 | 59 | 20 | 2.6 | 7.8 | 0.00 | 0.00 | 0.00 | 82 | 1017.8 |
| 20260507165004 | 59 | 17 | 3.5 | 7.8 | 0.00 | 0.00 | 0.00 | 82 | 1018.2 |
| 20260507164515 | 59 | 359 | 0.9 | 7.0 | 0.00 | 0.00 | 0.00 | 81 | 1018.1 |
| 20260507164004 | 59 | 1 | 2.6 | 6.1 | 0.00 | 0.00 | 0.00 | 81 | 1019.0 |
| 20260507163506 | 59 | 2 | 3.5 | 6.1 | 0.00 | 0.00 | 0.00 | 80 | 1018.9 |
| 20260507163017 | 59 | 360 | 2.6 | 5.2 | 0.00 | 0.00 | 0.00 | 80 | 1019.9 |
| 20260507162504 | 59 | 330 | 1.7 | 3.5 | 0.00 | 0.00 | 0.00 | 80 | 1019.9 |
| 20260507162004 | 59 | 323 | 0.9 | 6.1 | 0.00 | 0.00 | 0.00 | 80 | 1020.1 |
| 20260507161505 | 59 | 311 | 0.0 | 7.0 | 0.00 | 0.00 | 0.00 | 81 | 1020.1 |
| 20260507161003 | 59 | 11 | 1.7 | 7.8 | 0.00 | 0.00 | 0.00 | 81 | 1019.9 |
| 20260507160504 | 58 | 1 | 1.7 | 7.8 | 0.00 | 0.00 | 0.00 | 81 | 1019.4 |
| 20260507160008 | 58 | 354 | 2.6 | 7.0 | 0.00 | 0.00 | 0.00 | 80 | 1019.3 |
| 20260507155510 | 58 | 1 | 3.5 | 7.8 | 0.00 | 0.00 | 0.00 | 81 | 1019.2 |
| 20260507155006 | 58 | 11 | 1.7 | 7.8 | 0.00 | 0.00 | 0.00 | 81 | 1019.5 |
| 20260507154522 | 58 | 1 | 3.5 | 7.8 | 0.00 | 0.00 | 0.00 | 81 | 1019.4 |
| 20260507154003 | 58 | 356 | 1.7 | 7.0 | 0.00 | 0.00 | 0.00 | 81 | 1019.7 |